sat.trackr.live / text

‹ back to catalog

STARLINK-37541

NORAD 68906 · 2026-097M

PAYLOAD ACTIVE UNKNOWN

§ Identity

Operator
Country
US
Launch date
2026-04-30
Launch site
AFWTR
Launch vehicle
Mass (kg)
RCS (m²)

Purposes: comms

External: N2YO · Heavens-Above · Gunter

§ Orbital elements

Epoch: 2026-05-24T14:11:10.289184Z

Period
93.06 min
Inclination
97.2858°
Eccentricity
0.0001515
Mean motion
15.47395107 rev/d
Perigee alt
423.3 km
Apogee alt
425.4 km
Semi-major
6,802.5 km
B*
-8.4632e-3
RAAN
340.3465°
Arg perigee
24.4392°
Mean anomaly
335.6930°
Rev number
386

§ Raw data

STARLINK-375411 68906U 26097M   26144.59109131 -.00410699  00000+0 -84632-2 0  99942 68906  97.2858 340.3465 0001515  24.4392 335.6930 15.47395107  3869

JSON: /api/v1/satellites/68906 · /tle

For live sub-satellite position, see the globe view (requires WebGL).

§ Visibility from observer

Set your observer location to see the next 7 days of passes ≥ 10°. The values pass through the URL so the page stays shareable.

No JS? Fill the form by hand. The geolocation button needs JavaScript.